This demonstration page uses our WeatherBlox Daily Observations layout. Learn more.

Left ArrowRight Arrow

39.51506, -84.39828

Hourly Observations for December 4, 2021

Temp ( °F °C ) Dew Point ( °F °C ) Humidity (%) Winds ( mph kmh ) Pressure ( in mb ) Visibility ( mi km ) Precip ( " mm )
12:15 am 00:15 Clear 39 3.7 33 0.3 79 79 NE 6 9 30.07 1018 10 16 N/A
12:35 am 00:35 Clear 38 3.6 33 0.4 80 80 NE 6 9 30.07 1018 10 16 N/A
12:55 am 00:55 Clear 38 3.3 33 0.5 82 82 NE 6 9 30.07 1018 10 16 N/A
1:15 am 01:15 Clear 38 3.1 33 0.5 83 83 NE 6 9 30.08 1019 10 16 N/A
1:35 am 01:35 Clear 37 2.6 33 0.5 86 86 NNE 6 9 30.08 1019 10 16 N/A
1:55 am 01:55 Clear 38 3.1 33 0.8 85 85 NNE 7 11 30.09 1019 10 16 N/A
2:15 am 02:15 Clear 37 2.7 33 0.7 87 87 NE 7 11 30.09 1019 10 16 N/A
2:35 am 02:35 Clear 37 2.6 33 0.7 87 87 NE 6 9 30.10 1019 10 16 N/A
2:55 am 02:55 Clear 37 2.8 33 0.8 87 87 NE 9 15 30.12 1020 10 16 N/A
3:15 am 03:15 Clear 37 2.8 33 0.8 87 87 NE 8 13 30.12 1020 10 16 N/A
3:35 am 03:35 Clear 37 2.6 33 0.8 88 88 NE 9 15 30.12 1020 10 16 N/A
3:55 am 03:55 Clear 36 2.2 33 0.5 89 89 NE 6 9 30.14 1021 10 16 N/A
4:15 am 04:15 Clear 35 1.8 33 0.4 91 91 NE 7 11 30.14 1021 10 16 N/A
4:35 am 04:35 Clear 35 1.6 33 0.4 92 92 NE 7 11 30.15 1021 10 16 N/A
4:55 am 04:55 Clear 35 1.6 33 0.6 93 93 NE 6 9 30.15 1021 10 16 N/A
5:15 am 05:15 Clear 35 1.6 33 0.7 94 94 NE 7 11 30.16 1021 10 16 N/A
5:35 am 05:35 Clear 35 1.5 33 0.7 94 94 NE 6 9 30.17 1022 10 16 N/A
5:55 am 05:55 Clear 34 1.3 33 0.5 94 94 NE 7 11 30.18 1022 10 16 N/A
6:15 am 06:15 Clear 34 1.1 33 0.3 94 94 NE 7 11 30.19 1022 10 16 N/A
6:35 am 06:35 Clear 33 0.6 32 undefined 96 96 NE 6 9 30.20 1023 7 11 N/A
6:55 am 06:55 Clear with Mist and Fog 33 0.6 32 0.2 97 97 NE 7 11 30.21 1023 7 11 N/A
7:15 am 07:15 Clear with Mist and Fog 32 0.2 32 -0.1 98 98 NE 6 9 30.23 1024 5 8 N/A
7:35 am 07:35 Partly Cloudy with Mist and Fog 32 undefined 32 -0.2 99 99 NE 5 7 30.25 1024 4 6 N/A
7:55 am 07:55 Mostly Cloudy with Mist and Fog 32 0.2 32 undefined 99 99 NE 7 11 30.26 1025 4 6 N/A
8:15 am 08:15 Cloudy with Mist and Fog 33 0.4 32 0.1 98 98 NE 7 11 30.27 1025 5 8 N/A
8:35 am 08:35 Cloudy with Mist and Fog 33 0.5 33 0.3 99 99 NE 7 11 30.27 1025 5 8 N/A
8:55 am 08:55 Cloudy with Mist and Fog 33 0.7 33 0.5 99 99 ENE 5 7 30.27 1025 5 8 N/A
9:15 am 09:15 Cloudy with Mist and Fog 34 1 33 0.8 99 99 NNE 3 6 30.27 1025 4 6 N/A
9:35 am 09:35 Cloudy with Mist and Fog 34 1.3 34 1.1 99 99 NNE 5 7 30.29 1026 5 8 N/A
9:55 am 09:55 Mostly Cloudy with Mist and Fog 35 1.5 34 1.3 99 99 ENE 5 7 30.29 1026 7 11 N/A
10:15 am 10:15 Mostly Cloudy 37 2.6 35 1.8 95 95 NE 3 6 30.29 1026 7 11 N/A
10:35 am 10:35 Mostly Cloudy 39 3.7 37 2.5 92 92 ENE 5 7 30.30 1026 10 16 N/A
10:55 am 10:55 Partly Cloudy 40 4.7 36 2.3 85 85 NNE 5 7 30.30 1026 10 16 N/A
11:15 am 11:15 Sunny 42 5.4 36 2 79 79 NE 6 9 30.30 1026 10 16 N/A
11:35 am 11:35 Sunny 43 6.2 36 2.2 76 76 NE 5 7 30.30 1026 10 16 N/A
11:55 am 11:55 Sunny 44 6.6 36 2 73 73 N N/A 30.28 1025 10 16 N/A
12:15 pm 12:15 Sunny 45 7.4 35 1.8 68 68 E 6 9 30.28 1025 10 16 N/A
12:35 pm 12:35 Sunny 47 8.1 34 1.1 62 62 ENE 5 7 30.26 1025 10 16 N/A
12:55 pm 12:55 Sunny 48 9 31 -0.3 52 52 E 5 7 30.26 1025 10 16 N/A
1:15 pm 13:15 Sunny 49 9.5 30 -1 48 48 NNE 5 7 30.26 1025 10 16 N/A
1:35 pm 13:35 Sunny 50 9.8 30 -1.2 47 47 NE 9 15 30.25 1024 10 16 N/A
1:55 pm 13:55 Sunny 51 10.3 26 -3.1 39 39 NE 9 15 30.26 1025 10 16 N/A
2:15 pm 14:15 Sunny 51 10.3 26 -3.1 39 39 N 10 17 30.25 1024 10 16 N/A
2:35 pm 14:35 Sunny 51 10.3 22 -5.3 33 33 NE 7 11 30.25 1024 10 16 N/A
2:55 pm 14:55 Sunny 50 10 24 -4.2 37 37 NE 6 9 30.25 1024 10 16 N/A
3:15 pm 15:15 Sunny 50 10 24 -4.7 35 35 NNE 7 11 30.25 1024 10 16 N/A
3:35 pm 15:35 Sunny 50 9.8 21 -5.9 33 33 NE 8 13 30.25 1024 10 16 N/A
3:55 pm 15:55 Sunny 49 9.7 23 -5.2 35 35 NE 5 7 30.25 1024 10 16 N/A
4:15 pm 16:15 Sunny 48 9.1 24 -4.7 38 38 NE 6 9 30.26 1025 10 16 N/A
4:35 pm 16:35 Sunny 47 8.6 24 -4.2 40 40 N 5 7 30.27 1025 10 16 N/A
4:55 pm 16:55 Sunny 47 8.5 23 -4.9 39 39 N N/A 30.27 1025 10 16 N/A
5:15 pm 17:15 Clear 43 6.2 24 -4.3 47 47 N N/A 30.29 1026 10 16 N/A
5:35 pm 17:35 Clear 40 4.3 28 -2.3 63 63 N 3 6 30.29 1026 10 16 N/A
5:55 pm 17:55 Clear 37 3 29 -1.5 73 73 N N/A 30.30 1026 10 16 N/A
6:15 pm 18:15 Clear 37 2.7 27 -2.7 68 68 NNE 6 9 30.31 1026 10 16 N/A
6:35 pm 18:35 Clear 39 3.7 27 -2.6 64 64 NNE 5 7 30.32 1027 10 16 N/A
6:55 pm 18:55 Clear 37 3 28 -2.4 68 68 N 6 9 30.33 1027 10 16 N/A
7:15 pm 19:15 Clear 35 1.6 29 -1.9 78 78 NE 5 7 30.32 1027 10 16 N/A
7:35 pm 19:35 Clear 36 2.4 29 -1.5 76 76 ENE 3 6 30.32 1027 10 16 N/A
7:55 pm 19:55 Clear 34 1.3 31 -0.8 86 86 N N/A 30.31 1026 10 16 N/A
8:15 pm 20:15 Clear 33 0.6 29 -1.6 85 85 N 3 6 30.32 1027 10 16 N/A
8:35 pm 20:35 Clear 31 -0.8 27 -2.6 88 88 NNE 5 7 30.34 1027 10 16 N/A
8:55 pm 20:55 Clear 30 -1.1 27 -2.6 90 90 NE 6 9 30.34 1027 10 16 N/A
9:15 pm 21:15 Clear 31 -0.7 28 -2.5 88 88 ENE 6 9 30.34 1027 10 16 N/A
9:35 pm 21:35 Clear 33 0.5 28 -2.1 83 83 ENE 3 6 30.34 1028 10 16 N/A
9:55 pm 21:55 Clear 28 -2.1 25 -3.9 88 88 E 5 7 30.35 1028 10 16 N/A
10:15 pm 22:15 Clear 29 -1.9 27 -2.7 94 94 NE 6 9 30.34 1027 10 16 N/A
10:35 pm 22:35 Clear 30 -1.3 28 -2.5 92 92 ENE 5 7 30.35 1028 10 16 N/A
10:55 pm 22:55 Clear 30 -1 27 -2.6 89 89 NE 5 7 30.35 1028 10 16 N/A
11:15 pm 23:15 Clear 30 -0.9 28 -2.2 91 91 N N/A 30.34 1027 10 16 N/A
11:35 pm 23:35 Clear 31 -0.8 28 -2 92 92 N N/A 30.34 1027 10 16 N/A
11:55 pm 23:55 Clear 29 -1.6 27 -2.9 91 91 NNE 3 6 30.34 1027 10 16 N/A

Powered by AerisWeather